,,,PA_Meas_PMT16A,,PR_Meas_QMR101_102,,RH_Meas_QMH101,,SR_Meas_QMS101,,TA_Meas_QMH101,,GenWind,,GenWind,
date,time,status,PA,status,PR,status,RH,status,SR,status,TA,status,DirAvg,status,SpdAvg,
2010-10-24, 00:00:04,VALID,1003.39,VALID,2.5,INVALID,163.716,VALID,0,VALID,23.3532,VALID,340,VALID,0.528125,
2010-10-24, 00:01:04,VALID,1003.41,VALID,2.5,INVALID,163.716,VALID,0,VALID,23.2364,VALID,340,VALID,0.805469,
2010-10-24, 00:02:04,VALID,1003.39,VALID,2,INVALID,163.746,VALID,0,VALID,23.1002,VALID,274,VALID,0.382422,
2010-10-24, 00:03:04,VALID,1003.44,VALID,2,INVALID,163.723,VALID,0,VALID,23.0029,VALID,324,VALID,0.461328,
2010-10-24, 00:04:04,VALID,1003.41,VALID,2,INVALID,163.708,VALID,0,VALID,23.0224,VALID,289,VALID,2.10625,
2010-10-24, 00:05:04,VALID,1003.36,VALID,1.5,INVALID,163.701,VALID,0,VALID,23.0224,VALID,275,VALID,1.32695,
2010-10-24, 00:06:04,VALID,1003.31,VALID,0.5,INVALID,163.571,VALID,0,VALID,23.0418,VALID,287,VALID,0.6875,
2010-10-24, 00:07:04,VALID,1003.31,VALID,0,INVALID,163.014,VALID,0,VALID,23.0825,VALID,290,VALID,0.440234,
2010-10-24, 00:08:04,VALID,1003.3,VALID,0.5,INVALID,162.335,VALID,0,VALID,23.0807,VALID,334,VALID,0.633203,
2010-10-24, 00:09:04,VALID,1003.32,VALID,0,INVALID,161.488,VALID,0,VALID,23.1197,VALID,297,VALID,0.894531,
2010-10-24, 00:10:04,VALID,1003.33,VALID,0,INVALID,160.817,VALID,0,VALID,23.178,VALID,356,VALID,1.00391,
2010-10-24, 00:11:04,VALID,1003.43,VALID,1,INVALID,160.176,VALID,0,VALID,23.217,VALID,6,VALID,0.380859,
2010-10-24, 00:12:04,VALID,1003.49,VALID,1.5,INVALID,159.634,VALID,0,VALID,23.2347,VALID,6,VALID,0,
2010-10-24, 00:13:04,VALID,1003.5,VALID,1,INVALID,158.91,VALID,0,VALID,23.2754,VALID,242,VALID,0.898438,
2010-10-24, 00:14:04,VALID,1003.52,VALID,1.5,INVALID,158.612,VALID,0,VALID,23.2541,VALID,231,VALID,1.08711,
2010-10-24, 00:15:04,VALID,1003.53,VALID,1.5,INVALID,158.009,VALID,0,VALID,23.3143,VALID,294,VALID,1.47773,
2010-10-24, 00:16:04,VALID,1003.52,VALID,0.5,INVALID,157.491,VALID,0,VALID,23.3337,VALID,288,VALID,1.30508,
2010-10-24, 00:17:04,VALID,1003.56,VALID,0.5,INVALID,157.094,VALID,0,VALID,23.332,VALID,302,VALID,1.03906,
2010-10-24, 00:18:04,VALID,1003.56,VALID,0.5,INVALID,156.69,VALID,0,VALID,23.3727,VALID,290,VALID,0.869922,
2010-10-24, 00:19:04,VALID,1003.57,VALID,0.5,INVALID,156.316,VALID,0,VALID,23.3514,VALID,308,VALID,0.874609,
2010-10-24, 00:20:04,VALID,1003.62,VALID,0.5,INVALID,155.927,VALID,0,VALID,23.3921,VALID,293,VALID,1.37891,
2010-10-24, 00:21:04,VALID,1003.67,VALID,0,INVALID,155.515,VALID,0,VALID,23.3921,VALID,330,VALID,0.982813,
2010-10-24, 00:22:04,VALID,1003.77,VALID,0.5,INVALID,155.179,VALID,0.100563,VALID,23.4116,VALID,12,VALID,1.20742,
2010-10-24, 00:23:04,VALID,1003.87,VALID,0,INVALID,154.897,VALID,0.100563,VALID,23.3904,VALID,28,VALID,0.933203,
2010-10-24, 00:24:04,VALID,1003.93,VALID,0,INVALID,154.63,VALID,0.100563,VALID,23.3727,VALID,360,VALID,0.954297,
2010-10-24, 00:25:04,VALID,1003.95,VALID,1,INVALID,154.233,VALID,0.100563,VALID,23.3709,VALID,349,VALID,0.780859,
2010-10-24, 00:26:04,VALID,1003.93,VALID,0.5,INVALID,153.928,VALID,0.100563,VALID,23.3709,VALID,351,VALID,1.65469,
2010-10-24, 00:27:04,VALID,1003.98,VALID,0.5,INVALID,153.508,VALID,0.201126,VALID,23.3886,VALID,351,VALID,1.69062,
2010-10-24, 00:28:04,VALID,1003.97,VALID,1,INVALID,153.196,VALID,0.201126,VALID,23.3904,VALID,349,VALID,1.85938,
2010-10-24, 00:29:04,VALID,1003.98,VALID,1,INVALID,152.814,VALID,0.301689,VALID,23.4098,VALID,353,VALID,1.76406,
2010-10-24, 00:30:04,VALID,1003.95,VALID,0.5,INVALID,152.562,VALID,0.402252,VALID,23.4293,VALID,330,VALID,0.787109,
2010-10-24, 00:31:04,VALID,1003.97,VALID,0.5,INVALID,152.272,VALID,0.502815,VALID,23.4293,VALID,355,VALID,0.788672,
2010-10-24, 00:32:04,VALID,1004.04,VALID,0.5,INVALID,151.922,VALID,0.603378,VALID,23.4487,VALID,288,VALID,0.785547,
2010-10-24, 00:33:04,VALID,1004.07,VALID,0,INVALID,151.655,VALID,0.603378,VALID,23.4894,VALID,318,VALID,1.34102,
2010-10-24, 00:34:04,VALID,1004.11,VALID,0.5,INVALID,151.708,VALID,0.804504,VALID,23.4293,VALID,273,VALID,1.65781,
2010-10-24, 00:35:04,VALID,1004.16,VALID,0.5,INVALID,151.822,VALID,0.905066,VALID,23.3921,VALID,291,VALID,2.65703,
2010-10-24, 00:36:04,VALID,1004.22,VALID,0,INVALID,151.708,VALID,1.10619,VALID,23.332,VALID,307,VALID,1.17852,
2010-10-24, 00:37:04,VALID,1004.26,VALID,1,INVALID,151.357,VALID,1.30732,VALID,23.332,VALID,274,VALID,0.485547,
2010-10-24, 00:38:04,VALID,1004.28,VALID,0,INVALID,150.976,VALID,1.50844,VALID,23.3709,VALID,219,VALID,1.00664,
2010-10-24, 00:39:04,VALID,1004.31,VALID,0,INVALID,150.632,VALID,1.60901,VALID,23.4116,VALID,216,VALID,0.953516,
2010-10-24, 00:40:04,VALID,1004.42,VALID,0.5,INVALID,150.426,VALID,1.60901,VALID,23.3904,VALID,237,VALID,0.673828,
2010-10-24, 00:41:04,VALID,1004.44,VALID,1.5,INVALID,150.289,VALID,1.60901,VALID,23.3514,VALID,236,VALID,1.03398,
2010-10-24, 00:42:04,VALID,1004.4,VALID,1,INVALID,150.045,VALID,1.70957,VALID,23.3904,VALID,269,VALID,0.878906,
2010-10-24, 00:43:04,VALID,1004.4,VALID,2,INVALID,149.808,VALID,1.81013,VALID,23.4311,VALID,302,VALID,0.266016,
2010-10-24, 00:44:04,VALID,1004.35,VALID,2.5,INVALID,149.579,VALID,2.11182,VALID,23.4311,VALID,270,VALID,0.495703,
2010-10-24, 00:45:04,VALID,1004.3,VALID,1,INVALID,149.32,VALID,2.41351,VALID,23.4098,VALID,260,VALID,0.8,
2010-10-24, 00:46:04,VALID,1004.31,VALID,0.5,INVALID,149.038,VALID,2.81576,VALID,23.4487,VALID,191,VALID,0.971094,
2010-10-24, 00:47:04,VALID,1004.31,VALID,0,INVALID,148.771,VALID,2.91633,VALID,23.4877,VALID,271,VALID,0.821484,
2010-10-24, 00:48:04,VALID,1004.35,VALID,0,INVALID,148.496,VALID,3.11745,VALID,23.4877,VALID,237,VALID,0.716797,
2010-10-24, 00:49:04,VALID,1004.38,VALID,0,INVALID,148.321,VALID,3.11745,VALID,23.5071,VALID,180,VALID,1.23984,
2010-10-24, 00:50:04,VALID,1004.37,VALID,0.5,INVALID,148.222,VALID,3.11745,VALID,23.5071,VALID,237,VALID,0.827734,
2010-10-24, 00:51:04,VALID,1004.32,VALID,0.5,INVALID,148.069,VALID,3.21801,VALID,23.5266,VALID,274,VALID,0.561719,
2010-10-24, 00:52:04,VALID,1004.29,VALID,0.5,INVALID,147.855,VALID,3.21801,VALID,23.5266,VALID,294,VALID,0.894922,
2010-10-24, 00:53:04,VALID,1004.29,VALID,0,INVALID,147.71,VALID,3.31858,VALID,23.5266,VALID,303,VALID,1.75195,
2010-10-24, 00:54:04,VALID,1004.31,VALID,0.5,INVALID,147.596,VALID,3.31858,VALID,23.5266,VALID,352,VALID,2.06094,
2010-10-24, 00:55:04,VALID,1004.42,VALID,0,INVALID,147.459,VALID,3.31858,VALID,23.5266,VALID,1,VALID,1.28672,
2010-10-24, 00:56:04,VALID,1004.44,VALID,0,INVALID,147.337,VALID,3.11745,VALID,23.5071,VALID,354,VALID,1.74727,
2010-10-24, 00:57:04,VALID,1004.5,VALID,0,INVALID,147.276,VALID,3.11745,VALID,23.4664,VALID,354,VALID,2.0168,
2010-10-24, 00:58:04,VALID,1004.55,VALID,0,INVALID,147.176,VALID,3.11745,VALID,23.4682,VALID,359,VALID,0.641797,
2010-10-24, 00:59:04,VALID,1004.64,VALID,0,INVALID,147.108,VALID,3.31858,VALID,23.4275,VALID,35,VALID,0.710938,
2010-10-24, 01:00:04,VALID,1004.64,VALID,0.5,INVALID,147.169,VALID,3.41914,VALID,23.3904,VALID,351,VALID,1.44492,
2010-10-24, 01:01:04,VALID,1004.68,VALID,0,INVALID,147.169,VALID,3.82139,VALID,23.332,VALID,359,VALID,2.53398,
2010-10-24, 01:02:04,VALID,1004.66,VALID,1,INVALID,147.146,VALID,4.32421,VALID,23.3143,VALID,357,VALID,2.45117,
2010-10-24, 01:03:04,VALID,1004.7,VALID,0,INVALID,147.016,VALID,5.12871,VALID,23.2559,VALID,355,VALID,2.12539,
2010-10-24, 01:04:04,VALID,1004.73,VALID,0.5,INVALID,146.864,VALID,5.93321,VALID,23.2541,VALID,323,VALID,1.17734,
2010-10-24, 01:05:04,VALID,1004.76,VALID,0,INVALID,146.665,VALID,6.83828,VALID,23.2347,VALID,347,VALID,1.91328,
2010-10-24, 01:06:04,VALID,1004.76,VALID,0.5,INVALID,146.429,VALID,7.64278,VALID,23.2541,VALID,354,VALID,1.47812,
2010-10-24, 01:07:04,VALID,1004.75,VALID,0.5,INVALID,146.261,VALID,7.74335,VALID,23.2541,VALID,353,VALID,1.57813,
2010-10-24, 01:08:04,VALID,1004.75,VALID,1,INVALID,146.169,VALID,7.44166,VALID,23.2347,VALID,332,VALID,1.13164,
2010-10-24, 01:09:04,VALID,1004.74,VALID,0.5,INVALID,146.055,VALID,7.03941,VALID,23.2152,VALID,349,VALID,2.45391,
2010-10-24, 01:10:04,VALID,1004.75,VALID,0,INVALID,145.796,VALID,6.83828,VALID,23.2541,VALID,352,VALID,1.70664,
2010-10-24, 01:11:04,VALID,1004.77,VALID,0.5,INVALID,145.62,VALID,6.63715,VALID,23.2347,VALID,1,VALID,1.03359,
2010-10-24, 01:12:04,VALID,1004.76,VALID,0,INVALID,145.567,VALID,6.43603,VALID,23.2347,VALID,1,VALID,1.27461,
2010-10-24, 01:13:04,VALID,1004.8,VALID,0,INVALID,145.536,VALID,6.73772,VALID,23.1957,VALID,351,VALID,1.31289,
2010-10-24, 01:14:04,VALID,1004.89,VALID,0,INVALID,145.467,VALID,7.74335,VALID,23.1957,VALID,40,VALID,1.48086,
2010-10-24, 01:15:04,VALID,1005.01,VALID,0,INVALID,145.422,VALID,9.15123,VALID,23.1568,VALID,17,VALID,0.929688,
2010-10-24, 01:16:04,VALID,1005.08,VALID,0,INVALID,145.269,VALID,10.8608,VALID,23.1568,VALID,12,VALID,1.08047,
2010-10-24, 01:17:04,VALID,1005.14,VALID,0,INVALID,145.147,VALID,13.0732,VALID,23.178,VALID,349,VALID,0.914844,
2010-10-24, 01:18:04,VALID,1005.16,VALID,0,INVALID,144.926,VALID,16.3918,VALID,23.1763,VALID,352,VALID,1.08945,
2010-10-24, 01:19:04,VALID,1005.12,VALID,0,INVALID,144.88,VALID,20.012,VALID,23.178,VALID,354,VALID,1.43555,
2010-10-24, 01:20:04,VALID,1005.12,VALID,0,INVALID,144.811,VALID,24.1351,VALID,23.1374,VALID,27,VALID,0.789453,
2010-10-24, 01:21:04,VALID,1005.01,VALID,0,INVALID,144.712,VALID,29.0627,VALID,23.1179,VALID,360,VALID,1.36836,
2010-10-24, 01:22:04,VALID,1005.02,VALID,0,INVALID,144.544,VALID,33.9903,VALID,23.1374,VALID,15,VALID,1.48008,
2010-10-24, 01:23:04,VALID,1005.05,VALID,0,INVALID,144.453,VALID,38.2139,VALID,23.1179,VALID,8,VALID,1.16289,
2010-10-24, 01:24:04,VALID,1005.05,VALID,0,INVALID,144.277,VALID,39.7224,VALID,23.1179,VALID,21,VALID,0.882031,
2010-10-24, 01:25:04,VALID,1005.07,VALID,0,INVALID,144.102,VALID,43.0409,VALID,23.1568,VALID,30,VALID,1.30195,
2010-10-24, 01:26:04,VALID,1005.09,VALID,0,INVALID,143.965,VALID,50.9854,VALID,23.1763,VALID,3,VALID,1.15039,
2010-10-24, 01:27:04,VALID,1005.08,VALID,0,INVALID,143.949,VALID,57.9243,VALID,23.1568,VALID,356,VALID,1.44258,
2010-10-24, 01:28:04,VALID,1005.07,VALID,0,INVALID,144.079,VALID,60.3378,VALID,23.0984,VALID,335,VALID,0.767187,
2010-10-24, 01:29:04,VALID,1005.05,VALID,0.5,INVALID,143.934,VALID,60.2372,VALID,23.079,VALID,343,VALID,1.52773,
2010-10-24, 01:30:04,VALID,1005.06,VALID,0,INVALID,143.637,VALID,54.2034,VALID,23.1586,VALID,346,VALID,1.83516,
2010-10-24, 01:31:04,VALID,1005.09,VALID,0,INVALID,143.202,VALID,48.3708,VALID,23.2134,VALID,353,VALID,2.16719,
2010-10-24, 01:32:04,VALID,1005.07,VALID,0,INVALID,143.034,VALID,44.4488,VALID,23.2541,VALID,356,VALID,2.8668,
2010-10-24, 01:33:04,VALID,1005.09,VALID,0,INVALID,142.874,VALID,41.4319,VALID,23.2931,VALID,351,VALID,3.07578,
2010-10-24, 01:34:04,VALID,1005.09,VALID,0,INVALID,142.782,VALID,39.119,VALID,23.332,VALID,354,VALID,3.71445,
2010-10-24, 01:35:04,VALID,1005.15,VALID,0,INVALID,142.66,VALID,36.5043,VALID,23.332,VALID,352,VALID,2.85547,
2010-10-24, 01:36:04,VALID,1005.16,VALID,0,INVALID,142.614,VALID,35.5993,VALID,23.332,VALID,359,VALID,2.9082,
2010-10-24, 01:37:04,VALID,1005.17,VALID,0,INVALID,142.523,VALID,37.2083,VALID,23.3709,VALID,4,VALID,2.83281,
2010-10-24, 01:38:04,VALID,1005.14,VALID,0,INVALID,142.576,VALID,39.0184,VALID,23.3709,VALID,360,VALID,3.13555,
2010-10-24, 01:39:04,VALID,1005.15,VALID,0,INVALID,142.553,VALID,38.9179,VALID,23.3709,VALID,15,VALID,2.95508,
2010-10-24, 01:40:04,VALID,1005.18,VALID,0,INVALID,142.584,VALID,39.0184,VALID,23.3921,VALID,10,VALID,3.50781,
2010-10-24, 01:41:04,VALID,1005.16,VALID,0,INVALID,142.675,VALID,41.3314,VALID,23.3709,VALID,9,VALID,4.10313,
2010-10-24, 01:42:04,VALID,1005.15,VALID,0,INVALID,142.691,VALID,45.3539,VALID,23.3709,VALID,18,VALID,2.36875,
2010-10-24, 01:43:04,VALID,1005.21,VALID,0,INVALID,142.698,VALID,46.9629,VALID,23.3904,VALID,16,VALID,2.75859,
2010-10-24, 01:44:04,VALID,1005.2,VALID,0,INVALID,142.828,VALID,46.5606,VALID,23.3514,VALID,6,VALID,2.58281,
2010-10-24, 01:45:04,VALID,1005.26,VALID,0,INVALID,143.133,VALID,50.6837,VALID,23.2736,VALID,19,VALID,2.75,
2010-10-24, 01:46:04,VALID,1005.27,VALID,0,INVALID,143.339,VALID,57.1198,VALID,23.2152,VALID,3,VALID,3.28555,
2010-10-24, 01:47:04,VALID,1005.28,VALID,0,INVALID,143.316,VALID,61.6451,VALID,23.2541,VALID,26,VALID,3.525,
2010-10-24, 01:48:04,VALID,1005.28,VALID,0,INVALID,143.37,VALID,69.3884,VALID,23.2347,VALID,31,VALID,2.11133,
2010-10-24, 01:49:04,VALID,1005.29,VALID,0.5,INVALID,143.377,VALID,78.7408,VALID,23.2736,VALID,357,VALID,1.94297,
2010-10-24, 01:50:04,VALID,1005.29,VALID,0,INVALID,143.316,VALID,88.596,VALID,23.2736,VALID,359,VALID,3.10156,
2010-10-24, 01:51:04,VALID,1005.38,VALID,0.5,INVALID,143.316,VALID,99.7584,VALID,23.2931,VALID,358,VALID,2.81602,
2010-10-24, 01:52:04,VALID,1005.42,VALID,0,INVALID,143.415,VALID,114.24,VALID,23.2718,VALID,354,VALID,2.87305,
2010-10-24, 01:53:04,VALID,1005.4,VALID,0.5,INVALID,143.553,VALID,122.486,VALID,23.2718,VALID,15,VALID,1.47773,
2010-10-24, 01:54:04,VALID,1005.49,VALID,0,INVALID,143.423,VALID,133.749,VALID,23.3514,VALID,346,VALID,0.734375,
2010-10-24, 01:55:04,VALID,1005.53,VALID,0,INVALID,143.354,VALID,150.14,VALID,23.332,VALID,8,VALID,1.49492,
2010-10-24, 01:56:04,VALID,1005.56,VALID,0,INVALID,143.247,VALID,159.493,VALID,23.3514,VALID,17,VALID,1.96523,
2010-10-24, 01:57:04,VALID,1005.61,VALID,0,INVALID,143.156,VALID,162.208,VALID,23.4311,VALID,18,VALID,0.802734,
2010-10-24, 01:58:04,VALID,1005.66,VALID,0,INVALID,143.247,VALID,169.549,VALID,23.4311,VALID,28,VALID,1.67813,
2010-10-24, 01:59:04,VALID,1005.68,VALID,0,INVALID,143.202,VALID,184.734,VALID,23.4487,VALID,11,VALID,1.45313,
2010-10-24, 02:00:04,VALID,1005.68,VALID,0,INVALID,143.148,VALID,206.657,VALID,23.5089,VALID,20,VALID,1.575,
2010-10-24, 02:01:04,VALID,1005.65,VALID,0,INVALID,143.255,VALID,226.87,VALID,23.4877,VALID,16,VALID,2.84453,
2010-10-24, 02:02:04,VALID,1005.66,VALID,0,INVALID,143.606,VALID,246.48,VALID,23.4877,VALID,356,VALID,2.80156,
2010-10-24, 02:03:04,VALID,1005.67,VALID,0,INVALID,143.69,VALID,261.966,VALID,23.5655,VALID,6,VALID,2.04844,
2010-10-24, 02:04:04,VALID,1005.69,VALID,0,INVALID,143.713,VALID,273.732,VALID,23.6452,VALID,354,VALID,2.24727,
2010-10-24, 02:05:04,VALID,1005.68,VALID,0,INVALID,143.972,VALID,274.436,VALID,23.6434,VALID,8,VALID,2.08008,
2010-10-24, 02:06:04,VALID,1005.7,VALID,0,INVALID,144.026,VALID,272.425,VALID,23.7637,VALID,359,VALID,1.9625,
2010-10-24, 02:07:04,VALID,1005.7,VALID,0,INVALID,144.392,VALID,272.023,VALID,23.7407,VALID,358,VALID,2.5207,
2010-10-24, 02:08:04,VALID,1005.7,VALID,0,INVALID,144.544,VALID,272.123,VALID,23.8398,VALID,354,VALID,1.63672,
2010-10-24, 02:09:04,VALID,1005.7,VALID,0,INVALID,145.033,VALID,277.554,VALID,23.8398,VALID,357,VALID,2.19023,
2010-10-24, 02:10:04,VALID,1005.7,VALID,0,INVALID,145.094,VALID,279.464,VALID,23.9177,VALID,355,VALID,1.33672,
2010-10-24, 02:11:04,VALID,1005.71,VALID,0,INVALID,145.254,VALID,289.822,VALID,23.9584,VALID,12,VALID,2.34141,
2010-10-24, 02:12:04,VALID,1005.74,VALID,0,INVALID,145.826,VALID,295.152,VALID,23.8769,VALID,9,VALID,2.04609,
2010-10-24, 02:13:04,VALID,1005.77,VALID,0,INVALID,146.299,VALID,263.877,VALID,23.9195,VALID,12,VALID,2.99297,
2010-10-24, 02:14:04,VALID,1005.79,VALID,0,INVALID,146.391,VALID,258.346,VALID,23.9955,VALID,360,VALID,1.54492,
2010-10-24, 02:15:04,VALID,1005.81,VALID,0,INVALID,146.475,VALID,252.212,VALID,24.0947,VALID,352,VALID,2.23984,
2010-10-24, 02:16:04,VALID,1005.78,VALID,0,INVALID,147.482,VALID,249.698,VALID,24.0363,VALID,355,VALID,2.34375,
2010-10-24, 02:17:04,VALID,1005.83,VALID,0,INVALID,147.497,VALID,246.58,VALID,24.1142,VALID,346,VALID,0.683984,
2010-10-24, 02:18:04,VALID,1005.84,VALID,0,INVALID,147.771,VALID,255.732,VALID,24.1123,VALID,349,VALID,2.09414,
2010-10-24, 02:19:04,VALID,1005.83,VALID,0,INVALID,147.916,VALID,273.028,VALID,24.1707,VALID,323,VALID,1.58281,
2010-10-24, 02:20:04,VALID,1005.88,VALID,0,INVALID,147.825,VALID,244.971,VALID,24.2662,VALID,293,VALID,0.739453,
2010-10-24, 02:21:04,VALID,1005.88,VALID,0,INVALID,147.871,VALID,210.478,VALID,24.3265,VALID,317,VALID,0.352734,
2010-10-24, 02:22:04,VALID,1005.91,VALID,0,INVALID,148.115,VALID,177.393,VALID,24.3441,VALID,348,VALID,1.82383,
2010-10-24, 02:23:04,VALID,1005.93,VALID,0,INVALID,149.045,VALID,191.572,VALID,24.2857,VALID,355,VALID,1.21641,
2010-10-24, 02:24:04,VALID,1005.96,VALID,0,INVALID,149.61,VALID,182.823,VALID,24.2875,VALID,334,VALID,1.22344,
2010-10-24, 02:25:04,VALID,1005.97,VALID,0,INVALID,149.335,VALID,190.165,VALID,24.3246,VALID,2,VALID,0.630469,
2010-10-24, 02:26:04,VALID,1005.95,VALID,0,INVALID,149.183,VALID,206.657,VALID,24.4025,VALID,315,VALID,0.551172,
2010-10-24, 02:27:04,VALID,1006.01,VALID,0,INVALID,149.64,VALID,235.72,VALID,24.4043,VALID,111,VALID,0.700781,
2010-10-24, 02:28:04,VALID,1006.03,VALID,0,INVALID,149.778,VALID,204.646,VALID,24.4025,VALID,345,VALID,1.38516,
2010-10-24, 02:29:04,VALID,1006,VALID,0,INVALID,150.487,VALID,204.646,VALID,24.383,VALID,354,VALID,1.43633,
2010-10-24, 02:30:04,VALID,1006.04,VALID,0,INVALID,150.976,VALID,212.992,VALID,24.4043,VALID,333,VALID,0.871875,
2010-10-24, 02:31:04,VALID,1006.04,VALID,0,INVALID,151.38,VALID,226.468,VALID,24.4043,VALID,303,VALID,1.44336,
2010-10-24, 02:32:04,VALID,1006.03,VALID,0,INVALID,151.532,VALID,234.01,VALID,24.3849,VALID,327,VALID,1.13125,
2010-10-24, 02:33:04,VALID,1006.05,VALID,0,INVALID,150.998,VALID,233.809,VALID,24.4822,VALID,326,VALID,0.879297,
2010-10-24, 02:34:04,VALID,1006.05,VALID,0,INVALID,152.219,VALID,225.864,VALID,24.3849,VALID,338,VALID,1.05938,
2010-10-24, 02:35:04,VALID,1006.08,VALID,0,INVALID,152.265,VALID,210.076,VALID,24.4043,VALID,345,VALID,1.07344,
2010-10-24, 02:36:04,VALID,1006.11,VALID,0,INVALID,152.814,VALID,194.891,VALID,24.383,VALID,339,VALID,0.4125,
2010-10-24, 02:37:04,VALID,1006.12,VALID,0,INVALID,152.974,VALID,177.192,VALID,24.4433,VALID,348,VALID,0.397656,
2010-10-24, 02:38:04,VALID,1006.12,VALID,0,INVALID,152.723,VALID,158.99,VALID,24.5425,VALID,324,VALID,0.976953,
2010-10-24, 02:39:04,VALID,1006.16,VALID,0,INVALID,153.363,VALID,143.604,VALID,24.5017,VALID,316,VALID,0.716797,
2010-10-24, 02:40:04,VALID,1006.18,VALID,0,INVALID,154.492,VALID,131.134,VALID,24.4043,VALID,342,VALID,1.20039,
2010-10-24, 02:41:04,VALID,1006.2,VALID,0,INVALID,154.996,VALID,120.877,VALID,24.4062,VALID,351,VALID,0.583203,
2010-10-24, 02:42:04,VALID,1006.2,VALID,0,INVALID,154.95,VALID,113.033,VALID,24.4433,VALID,359,VALID,0.339453,
2010-10-24, 02:43:04,VALID,1006.24,VALID,0,INVALID,154.676,VALID,104.585,VALID,24.5017,VALID,305,VALID,0.523438,
2010-10-24, 02:44:04,VALID,1006.24,VALID,0,INVALID,154.912,VALID,94.7303,VALID,24.523,VALID,2,VALID,0.776172,
2010-10-24, 02:45:04,VALID,1006.28,VALID,0,INVALID,155.721,VALID,85.8808,VALID,24.5035,VALID,4,VALID,0.842578,
2010-10-24, 02:46:04,VALID,1006.28,VALID,0,INVALID,156.125,VALID,80.0481,VALID,24.4822,VALID,6,VALID,0.723437,
2010-10-24, 02:47:04,VALID,1006.34,VALID,0,INVALID,156.712,VALID,76.4278,VALID,24.4433,VALID,349,VALID,0.621094,
2010-10-24, 02:48:04,VALID,1006.36,VALID,0,INVALID,157.308,VALID,73.1093,VALID,24.4451,VALID,348,VALID,0.698047,
2010-10-24, 02:49:04,VALID,1006.4,VALID,0,INVALID,158.307,VALID,69.3884,VALID,24.3459,VALID,358,VALID,0.389062,
2010-10-24, 02:50:04,VALID,1006.43,VALID,0,INVALID,158.719,VALID,65.6676,VALID,24.3459,VALID,358,VALID,0.255469,
2010-10-24, 02:51:04,VALID,1006.47,VALID,0,INVALID,159.138,VALID,63.7569,VALID,24.3052,VALID,358,VALID,0.212109,
2010-10-24, 02:52:04,VALID,1006.46,VALID,0,INVALID,158.963,VALID,64.8631,VALID,24.3441,VALID,358,VALID,0.117969,
2010-10-24, 02:53:04,VALID,1006.5,VALID,0,INVALID,159.055,VALID,68.2822,VALID,24.3228,VALID,358,VALID,0.259766,
2010-10-24, 02:54:04,VALID,1006.53,VALID,0,INVALID,159.123,VALID,73.2098,VALID,24.3654,VALID,358,VALID,0.146484,
2010-10-24, 02:55:04,VALID,1006.52,VALID,0,INVALID,159.291,VALID,76.9307,VALID,24.3849,VALID,358,VALID,0.39375,
2010-10-24, 02:56:04,VALID,1006.5,VALID,0,INVALID,159.512,VALID,78.7408,VALID,24.3849,VALID,358,VALID,0.0550781,
2010-10-24, 02:57:04,VALID,1006.54,VALID,0,INVALID,159.535,VALID,82.6627,VALID,24.4043,VALID,358,VALID,0.263672,
2010-10-24, 02:58:04,VALID,1006.54,VALID,0,INVALID,159.627,VALID,91.6128,VALID,24.4433,VALID,358,VALID,0.028125,
2010-10-24, 02:59:04,VALID,1006.54,VALID,0,INVALID,160.092,VALID,107.301,VALID,24.4025,VALID,300,VALID,0.553516,
2010-10-24, 03:00:04,VALID,1006.5,VALID,0,INVALID,160.588,VALID,128.218,VALID,24.383,VALID,232,VALID,0.282031,
2010-10-24, 03:01:04,VALID,1006.46,VALID,0,INVALID,160.802,VALID,146.017,VALID,24.383,VALID,357,VALID,0.738672,
2010-10-24, 03:02:04,VALID,1006.43,VALID,0,INVALID,161.13,VALID,159.191,VALID,24.4025,VALID,284,VALID,0.430859,
2010-10-24, 03:03:04,VALID,1006.41,VALID,0,INVALID,160.969,VALID,169.046,VALID,24.4785,VALID,290,VALID,0.185547,
2010-10-24, 03:04:04,VALID,1006.36,VALID,0,INVALID,161.244,VALID,184.634,VALID,24.4785,VALID,322,VALID,0.185937,
2010-10-24, 03:05:04,VALID,1006.37,VALID,0,INVALID,161.419,VALID,198.31,VALID,24.5777,VALID,284,VALID,0.636328,
2010-10-24, 03:06:04,VALID,1006.29,VALID,0,INVALID,161.954,VALID,208.366,VALID,24.5972,VALID,295,VALID,0.478125,
2010-10-24, 03:07:04,VALID,1006.24,VALID,0,INVALID,162.64,VALID,219.127,VALID,24.6166,VALID,333,VALID,0.556641,
2010-10-24, 03:08:04,VALID,1006.2,VALID,0,INVALID,162.861,VALID,220.535,VALID,24.6556,VALID,4,VALID,0.873438,
2010-10-24, 03:09:04,VALID,1006.18,VALID,0,INVALID,163.517,VALID,217.015,VALID,24.6574,VALID,352,VALID,1.55547,
2010-10-24, 03:10:04,VALID,1006.14,VALID,0,INVALID,163.533,VALID,217.216,VALID,24.6593,VALID,350,VALID,1.75625,
2010-10-24, 03:11:04,VALID,1006.1,VALID,0,INVALID,163.54,VALID,219.127,VALID,24.638,VALID,4,VALID,1.12031,
2010-10-24, 03:12:04,VALID,1006.1,VALID,0,INVALID,163.563,VALID,221.44,VALID,24.7177,VALID,325,VALID,0.521484,
2010-10-24, 03:13:04,VALID,1006.11,VALID,0,INVALID,163.571,VALID,225.261,VALID,24.7761,VALID,335,VALID,0.922656,
2010-10-24, 03:14:04,VALID,1006.06,VALID,0,INVALID,163.548,VALID,230.289,VALID,24.6769,VALID,355,VALID,1.43828,
2010-10-24, 03:15:04,VALID,1006,VALID,0,INVALID,163.578,VALID,237.329,VALID,24.7353,VALID,357,VALID,1.63125,
2010-10-24, 03:16:04,VALID,1005.95,VALID,0,INVALID,163.578,VALID,252.514,VALID,24.854,VALID,357,VALID,1.44453,
2010-10-24, 03:17:04,VALID,1005.89,VALID,0,INVALID,163.563,VALID,247.586,VALID,24.93,VALID,351,VALID,1.50625,
2010-10-24, 03:18:04,VALID,1005.85,VALID,0,INVALID,163.563,VALID,243.463,VALID,24.9904,VALID,1,VALID,1.31367,
2010-10-24, 03:19:04,VALID,1005.83,VALID,0,INVALID,163.563,VALID,242.256,VALID,25.1072,VALID,356,VALID,1.07266,
2010-10-24, 03:20:04,VALID,1005.83,VALID,0,INVALID,163.571,VALID,248.189,VALID,25.2416,VALID,5,VALID,0.631641,
2010-10-24, 03:21:04,VALID,1005.76,VALID,0,INVALID,163.548,VALID,272.023,VALID,25.3974,VALID,14,VALID,0.533203,
2010-10-24, 03:22:04,VALID,1005.76,VALID,0,INVALID,163.502,VALID,397.626,VALID,25.5142,VALID,17,VALID,0.582812,
2010-10-24, 03:23:04,VALID,1005.77,VALID,0,INVALID,163.495,VALID,471.942,VALID,25.7285,VALID,18,VALID,0.384766,
2010-10-24, 03:24:04,VALID,1005.76,VALID,0,INVALID,163.472,VALID,532.079,VALID,25.9622,VALID,80,VALID,0.530469,
2010-10-24, 03:25:04,VALID,1005.72,VALID,0,INVALID,163.487,VALID,492.758,VALID,26.157,VALID,86,VALID,0.786719,
2010-10-24, 03:26:04,VALID,1005.7,VALID,0,INVALID,163.449,VALID,440.265,VALID,26.3108,VALID,95,VALID,0.814844,
2010-10-24, 03:27:04,VALID,1005.7,VALID,0,INVALID,163.479,VALID,388.072,VALID,26.4297,VALID,88,VALID,1.30391,
2010-10-24, 03:28:04,VALID,1005.68,VALID,0,INVALID,163.464,VALID,319.287,VALID,26.5291,VALID,86,VALID,0.657031,
2010-10-24, 03:29:04,VALID,1005.65,VALID,0,INVALID,163.441,VALID,353.177,VALID,26.4881,VALID,127,VALID,0.755469,
2010-10-24, 03:30:04,VALID,1005.63,VALID,0,INVALID,163.441,VALID,313.455,VALID,26.5096,VALID,132,VALID,0.915234,